Regional Weather Roundup
Issued by NWS

Home | Current Version | Previous Version | Graphics & Text | Print | Product List | Glossary On
Versions: 1 2 3 4 5 6 7 8 9 10 11 12 13 14 15 16 17 18 19 20 21 22 23 24 25 26 27 28 29 30 31 32 33 34 35 36 37 38 39 40 41 42 43 44 45 46 47 48 49 50
000
ASUS43 KMKX 211500
RWRWI

WISCONSIN REGIONAL WEATHER ROUNDUP
NATIONAL WEATHER SERVICE MILWAUKEE/SULLIVAN WI
1000 AM CDT THU SEP 21 2017

NOTE: "FAIR" INDICATES FEW OR NO CLOUDS BELOW 12,000 FEET WITH NO
SIGNIFICANT WEATHER AND/OR OBSTRUCTIONS TO VISIBILITY.

WIZ001-002-006>008-014>016-023>028-211600-
NORTHWEST WISCONSIN

CITY           SKY/WX    TMP DP  RH WIND       PRES   REMARKS
SUPERIOR ARPT  SUNNY     59  56  92 NE6       30.04S
ASHLAND        SUNNY     62  54  74 CALM      30.04F
HAYWARD        SUNNY     64  53  67 E6        30.03F
SIREN          SUNNY     59  51  73 SE6       30.02R
CUMBERLAND     SUNNY     61  52  72 E6        30.02F
RICE LAKE      SUNNY     63  54  72 E8        30.03F
CHETEK         SUNNY     62  55  80 E5        30.02F
LADYSMITH      SUNNY     64  56  75 E8        30.05F
EAU CLAIRE     NOT AVBL
MENOMONIE      SUNNY     62  56  81 E6        30.01F
NEW RICHMOND   SUNNY     64  55  72 E8        29.99F
OSCEOLA        SUNNY     63  53  70 E10       30.02S
$$

WIZ003>005-009-010-017-018-211600-
NORTH CENTRAL WISCONSIN

CITY           SKY/WX    TMP DP  RH WIND       PRES   REMARKS
MANITOWISH WTR SUNNY     60  59  96 E5        30.07S
ARBOR VITAE    SUNNY     62  57  83 SE8       30.06F
WOODRUFF       SUNNY     62  57  83 SE8       30.06F
RHINELANDER    MOSUNNY   64  60  87 E8        30.08R
EAGLE RIVER    MOSUNNY   59  59 100 E9        30.06F
LAND O LAKES   MOSUNNY   62  55  79 E7        30.09S
PHILLIPS       SUNNY     59  57  94 E3        30.05S
TOMAHAWK         N/A     61  60  97 E3        30.07R
MEDFORD        SUNNY     63  57  81 E9        30.05R
MERRILL        NOT AVBL
$$

WIZ029-030-035-036-043>047-211600-
CENTRAL WISCONSIN

CITY           SKY/WX    TMP DP  RH WIND       PRES   REMARKS
WAUSAU         MOSUNNY   67  62  84 E9        30.03S
MOSINEE        CLOUDY    66  66 100 E5        30.05S
MARSHFIELD     CLOUDY    66  62  87 E9        30.03S
STEVENS POINT  CLOUDY    65  65 100 E9        30.04F FOG
WAUPACA        CLOUDY    69  69  98 NE5       30.04R FOG
WAUTOMA        CLOUDY    67  67 100 E8        30.04S FOG
WISC RAPIDS    CLOUDY    68  67  96 E8        30.04S FOG
CAMP DOUGLAS   NOT AVBL
$$

WIZ011>013-019>022-031-037>040-048>050-211600-
NORTHEAST WISCONSIN

CITY           SKY/WX    TMP DP  RH WIND       PRES   REMARKS
ANTIGO         MOSUNNY   66  59  77 SE12      30.07R
SHAWANO        CLOUDY    70  65  84 NE3       30.05R
OCONTO         CLOUDY    69  63  82 NE3       30.04R
STURGEON BAY   CLOUDY    68  65  90 N5        30.04R
GREEN BAY      CLOUDY    69  67  93 NE10      30.04R
MANITOWOC      PTSUNNY   72  68  87 CALM      30.03S
APPLETON       NOT AVBL
CLINTONVILLE   NOT AVBL
OSHKOSH        CLOUDY    70  68  93 CALM      30.03R
$$

WIZ032>034-041-042-053>061-211600-
SOUTHWEST WISCONSIN

CITY           SKY/WX    TMP DP  RH WIND       PRES   REMARKS
LA CROSSE      NOT AVBL
SPARTA         CLOUDY    58  58 100 CALM      30.02S
VIROQUA        CLOUDY    67  66  97 E8        30.02S
BOSCOBEL       CLOUDY    71  68  90 VRB3      30.00S
PRAIRIE DU CHI PTSUNNY   70  67  90 CALM      29.99S
PLATTEVILLE    CLOUDY    72  71  96 E5        30.02R
$$

WIZ056-057-062-063-064-067-068-211600-
SOUTH CENTRAL WISCONSIN

CITY           SKY/WX    TMP DP  RH WIND       PRES   REMARKS
REEDSBURG      CLOUDY    67  67 100 E3        30.01S FOG
BARABOO/DELLS  FOG       69  68  96 E6        30.02S VSB 1/2
LONE ROCK      PTSUNNY   72  71  97 SE8       30.01R FOG
MINERAL POINT  CLOUDY    72  72 100 E3        30.03R
MADISON        PTSUNNY   73  71  93 E7        30.03R FOG
MIDDLETON      CLOUDY    73  73 100 E6        30.04R
WATERTOWN      CLOUDY    72  72  99 CALM      30.03R
MONROE         CLOUDY    70  64  83 E5        30.03S
JANESVILLE     PTSUNNY   79  57  47 CALM      30.02  HX  80
$$

WIZ051-052-058>065-066-070>072-211600-
SOUTHEAST WISCONSIN

CITY           SKY/WX    TMP DP  RH WIND       PRES   REMARKS
MILWAUKEE      PTSUNNY   79  69  71 CALM      30.02R HX  81
WAUKESHA       MOSUNNY   73  66  78 E5        30.05R
MILWAUKEE/TIMM SUNNY     73  64  73 E3        30.04R
RACINE         MOSUNNY   78  69  73 N6        30.04R HX  80
BURLINGTON     CLOUDY    82  69  64 CALM      30.02F HX  84
KENOSHA        MOSUNNY   84  66  54 E6        30.03R HX  86
FOND DU LAC    CLOUDY    74  67  78 CALM      30.03R
SHEBOYGAN      PTSUNNY   76  71  85 NE5       30.02S
WEST BEND        N/A     72  68  88 SE5       30.04R
JUNEAU         PTSUNNY   72  68  89 E5        30.05R
$$

LSZ147-162-211600-
LAKE SUPERIOR

STATION/POSITION TIME  TEMP    WIND        PRES    WAVE
                       AIR SEA DIR/SP/G            HT/PER
                 (UTC) (F)     (DEG/KT/KT) (MB)    (FT/S)
W MID LAKE BUOY  1350   55 54  130/  4/  6 1017.7R   1
DEVILS ISLAND    1400   58      70/  5/  5 1017.5R
SAXON HARBOR     1440   60     280/  2/  3 1016.6F
$$

LMZ867-665-643>646-211600-
LAKE MICHIGAN

STATION/POSITION TIME  TEMP    WIND        PRES    WAVE
                       AIR SEA DIR/SP/G            HT/PER
                 (UTC) (F)     (DEG/KT/KT) (MB)    (FT/S)
S GREEN BAY BUOY 1430   67 66   50/ 10/ 12 1017.1R
N MID LAKE BUOY  1350   66 65   10/  8/ 12 1016.6R   2/ 5
NORTHPORT PIER   1440   67     340/  8/ 11 1016.6S
KEWAUNEE LAKESHO 1430   66      20/  3/  7 1015.8F
SHEBOYGAN LAKESH 1400   70      10/  6/  6 1016.1R
PORT WASHINGTON  1430   74      40/  3/  4 1017.6R
ATWATER BUOY     1309   68 66  340/  4/  4 1016.4R
MILWAUKEE LAKESH 1430   71      50/  3/  4   N/A
S MID LAKE BUOY  1350   71 69  270/  8/ 10 1016.2R   1/ 3
KENOSHA   LAKESH 1400   74     150/  2/  3 1016.3
$$

TC  - TEMPERATURE IN CELSIUS
VSB - VISIBILITY IN STATUTE MILES
WCI - WIND CHILL INDEX
HX  - HEAT INDEX





USA.gov is the U.S. government's official web portal to all federal, state and local government web resources and services.